�N����,�����b,���ԉ��x,���Ԏ��x,��󒲎�,����,�����W
2003/6/1,0:00:00,23.7 ,57.9 ,22.8 ,22.1 ,23.6 
2003/6/1,0:15:00,23.7 ,57.9 ,22.7 ,22.1 ,23.6 
2003/6/1,0:30:00,23.7 ,57.9 ,22.7 ,22.2 ,23.5 
2003/6/1,0:45:00,23.7 ,58.0 ,22.7 ,22.2 ,23.5 
2003/6/1,1:00:00,23.7 ,58.1 ,22.7 ,22.2 ,23.5 
2003/6/1,1:15:00,23.6 ,58.2 ,22.7 ,22.2 ,23.5 
2003/6/1,1:30:00,23.6 ,58.2 ,22.7 ,22.2 ,23.4 
2003/6/1,1:45:00,23.6 ,58.6 ,22.7 ,22.2 ,23.4 
2003/6/1,2:00:00,23.6 ,58.7 ,22.7 ,22.2 ,23.4 
2003/6/1,2:15:00,23.6 ,58.9 ,22.6 ,22.2 ,23.3 
2003/6/1,2:30:00,23.6 ,59.2 ,22.6 ,22.2 ,23.3 
2003/6/1,2:45:00,23.5 ,59.3 ,22.6 ,22.2 ,23.3 
2003/6/1,3:00:00,23.5 ,59.6 ,22.6 ,22.3 ,23.3 
2003/6/1,3:15:00,23.5 ,59.8 ,22.6 ,22.3 ,23.3 
2003/6/1,3:30:00,23.5 ,60.0 ,22.6 ,22.3 ,23.3 
2003/6/1,3:45:00,23.5 ,60.0 ,22.6 ,22.3 ,23.3 
2003/6/1,4:00:00,23.5 ,60.3 ,22.6 ,22.3 ,23.3 
2003/6/1,4:15:00,23.5 ,60.5 ,22.6 ,22.3 ,23.4 
2003/6/1,4:30:00,23.5 ,60.6 ,22.5 ,22.3 ,23.4 
2003/6/1,4:45:00,23.5 ,60.8 ,22.5 ,22.3 ,23.4 
2003/6/1,5:00:00,23.5 ,60.7 ,22.5 ,22.2 ,23.3 
2003/6/1,5:15:00,23.4 ,60.9 ,22.5 ,22.2 ,23.3 
2003/6/1,5:30:00,23.4 ,60.9 ,22.5 ,22.2 ,23.3 
2003/6/1,5:45:00,23.4 ,60.9 ,22.5 ,22.3 ,23.3 
2003/6/1,6:00:00,23.4 ,61.1 ,22.5 ,22.3 ,23.2 
2003/6/1,6:15:00,23.4 ,61.1 ,22.5 ,22.3 ,23.2 
2003/6/1,6:30:00,23.4 ,60.9 ,22.4 ,22.3 ,23.2 
2003/6/1,6:45:00,23.4 ,60.9 ,22.4 ,22.3 ,23.1 
2003/6/1,7:00:00,23.4 ,60.9 ,22.4 ,22.3 ,23.1 
2003/6/1,7:15:00,23.3 ,60.9 ,22.4 ,22.3 ,23.0 
2003/6/1,7:30:00,23.4 ,60.9 ,22.4 ,22.3 ,23.0 
2003/6/1,7:45:00,23.3 ,61.1 ,22.4 ,22.3 ,23.0 
2003/6/1,8:00:00,23.3 ,60.9 ,22.4 ,22.3 ,23.0 
2003/6/1,8:15:00,23.3 ,61.0 ,22.4 ,22.3 ,23.0 
2003/6/1,8:30:00,23.3 ,60.9 ,22.4 ,22.3 ,23.0 
2003/6/1,8:45:00,23.3 ,60.9 ,22.3 ,22.3 ,22.9 
2003/6/1,9:00:00,23.3 ,60.8 ,22.3 ,22.3 ,22.9 
2003/6/1,9:15:00,23.3 ,60.8 ,22.3 ,22.4 ,22.9 
2003/6/1,9:30:00,23.3 ,61.0 ,22.3 ,22.4 ,22.9 
2003/6/1,9:45:00,23.2 ,60.9 ,22.3 ,22.4 ,22.9 
2003/6/1,10:00:00,23.2 ,60.7 ,22.3 ,22.4 ,22.9 
2003/6/1,10:15:00,23.2 ,60.8 ,22.3 ,22.4 ,22.9 
2003/6/1,10:30:00,23.2 ,61.0 ,22.3 ,22.4 ,22.9 
2003/6/1,10:45:00,23.2 ,60.9 ,22.3 ,22.4 ,22.9 
2003/6/1,11:00:00,23.2 ,60.9 ,22.3 ,22.4 ,22.8 
2003/6/1,11:15:00,23.2 ,61.1 ,22.3 ,22.4 ,22.8 
2003/6/1,11:30:00,23.2 ,61.0 ,22.2 ,22.4 ,22.8 
2003/6/1,11:45:00,23.2 ,61.0 ,22.2 ,22.4 ,22.8 
2003/6/1,12:00:00,23.2 ,61.0 ,22.2 ,22.4 ,22.7 
2003/6/1,12:15:00,23.2 ,61.1 ,22.2 ,22.4 ,22.7 
2003/6/1,12:30:00,23.2 ,60.7 ,22.2 ,22.5 ,22.6 
2003/6/1,12:45:00,23.1 ,60.8 ,22.2 ,22.5 ,22.5 
2003/6/1,13:00:00,23.1 ,60.8 ,22.2 ,22.5 ,22.5 
2003/6/1,13:15:00,23.1 ,60.7 ,22.1 ,22.5 ,22.5 
2003/6/1,13:30:00,23.0 ,60.7 ,22.1 ,22.5 ,22.4 
2003/6/1,13:45:00,23.0 ,60.7 ,22.1 ,22.5 ,22.3 
2003/6/1,14:00:00,23.0 ,60.6 ,22.1 ,22.5 ,22.4 
2003/6/1,14:15:00,23.0 ,60.6 ,22.0 ,22.5 ,22.3 
2003/6/1,14:30:00,22.9 ,60.5 ,22.0 ,22.5 ,22.2 
2003/6/1,14:45:00,22.9 ,60.2 ,22.0 ,22.5 ,22.2 
2003/6/1,15:00:00,23.0 ,60.0 ,22.0 ,22.5 ,22.3 
2003/6/1,15:15:00,23.0 ,60.0 ,22.0 ,22.5 ,22.3 
2003/6/1,15:30:00,23.0 ,60.1 ,22.0 ,22.5 ,22.4 
2003/6/1,15:45:00,23.0 ,60.2 ,22.0 ,22.5 ,22.5 
2003/6/1,16:00:00,23.0 ,60.0 ,22.0 ,22.5 ,22.5 
2003/6/1,16:15:00,23.0 ,59.8 ,21.9 ,22.5 ,22.4 
2003/6/1,16:30:00,22.9 ,59.9 ,21.9 ,22.5 ,22.3 
2003/6/1,16:45:00,22.9 ,59.9 ,21.9 ,22.5 ,22.3 
2003/6/1,17:00:00,22.9 ,60.0 ,21.9 ,22.5 ,22.3 
2003/6/1,17:15:00,22.8 ,60.0 ,21.9 ,22.5 ,22.2 
2003/6/1,17:30:00,22.8 ,60.0 ,21.8 ,22.5 ,22.0 
2003/6/1,17:45:00,22.8 ,59.9 ,21.8 ,22.5 ,22.1 
2003/6/1,18:00:00,22.7 ,59.9 ,21.8 ,22.5 ,22.0 
2003/6/1,18:15:00,22.7 ,59.7 ,21.7 ,22.5 ,21.9 
2003/6/1,18:30:00,22.6 ,59.6 ,21.7 ,22.5 ,21.8 
2003/6/1,18:45:00,22.6 ,59.6 ,21.7 ,22.5 ,21.8 
2003/6/1,19:00:00,22.6 ,59.6 ,21.6 ,22.5 ,21.8 
2003/6/1,19:15:00,22.5 ,59.7 ,21.6 ,22.5 ,21.7 
2003/6/1,19:30:00,22.5 ,59.6 ,21.6 ,22.5 ,21.6 
2003/6/1,19:45:00,22.5 ,59.6 ,21.5 ,22.5 ,21.6 
2003/6/1,20:00:00,22.4 ,59.6 ,21.5 ,22.5 ,21.5 
2003/6/1,20:15:00,22.4 ,59.6 ,21.5 ,22.5 ,21.5 
2003/6/1,20:30:00,22.3 ,59.6 ,21.4 ,22.5 ,21.5 
2003/6/1,20:45:00,22.3 ,59.6 ,21.4 ,22.4 ,21.4 
2003/6/1,21:00:00,22.3 ,59.5 ,21.4 ,22.4 ,21.4 
2003/6/1,21:15:00,22.2 ,59.5 ,21.3 ,22.4 ,21.3 
2003/6/1,21:30:00,22.2 ,59.5 ,21.3 ,22.4 ,21.3 
2003/6/1,21:45:00,22.1 ,59.5 ,21.3 ,22.4 ,21.3 
2003/6/1,22:00:00,22.1 ,59.4 ,21.2 ,22.4 ,21.2 
2003/6/1,22:15:00,22.1 ,59.3 ,21.2 ,22.4 ,21.2 
2003/6/1,22:30:00,22.0 ,59.3 ,21.1 ,22.4 ,21.1 
2003/6/1,22:45:00,22.0 ,59.3 ,21.1 ,22.4 ,21.1 
2003/6/1,23:00:00,21.9 ,59.2 ,21.1 ,22.4 ,21.0 
2003/6/1,23:15:00,21.9 ,59.1 ,21.0 ,22.3 ,21.0 
2003/6/1,23:30:00,21.9 ,59.1 ,21.0 ,22.3 ,20.9 
2003/6/1,23:45:00,21.8 ,59.0 ,20.9 ,22.3 ,20.8 
2003/6/2,0:00:00,21.8 ,58.9 ,20.9 ,22.3 ,20.8 
2003/6/2,0:15:00,21.7 ,58.9 ,20.9 ,22.3 ,20.8 
2003/6/2,0:30:00,21.7 ,58.9 ,20.8 ,22.3 ,20.7 
2003/6/2,0:45:00,21.6 ,58.9 ,20.8 ,22.3 ,20.7 
2003/6/2,1:00:00,21.6 ,58.8 ,20.8 ,22.3 ,20.6 
2003/6/2,1:15:00,21.6 ,58.8 ,20.7 ,22.2 ,20.6 
2003/6/2,1:30:00,21.5 ,58.8 ,20.7 ,22.2 ,20.5 
2003/6/2,1:45:00,21.5 ,58.8 ,20.6 ,22.2 ,20.5 
2003/6/2,2:00:00,21.4 ,58.8 ,20.6 ,22.2 ,20.5 
2003/6/2,2:15:00,21.4 ,58.8 ,20.6 ,22.2 ,20.5 
2003/6/2,2:30:00,21.4 ,58.9 ,20.5 ,22.1 ,20.4 
2003/6/2,2:45:00,21.3 ,58.8 ,20.5 ,22.1 ,20.3 
2003/6/2,3:00:00,21.3 ,58.8 ,20.5 ,22.1 ,20.4 
2003/6/2,3:15:00,21.3 ,58.8 ,20.4 ,22.1 ,20.3 
2003/6/2,3:30:00,21.2 ,58.8 ,20.4 ,22.1 ,20.2 
2003/6/2,3:45:00,21.2 ,58.8 ,20.4 ,22.0 ,20.2 
2003/6/2,4:00:00,21.2 ,58.8 ,20.3 ,22.0 ,20.2 
2003/6/2,4:15:00,21.1 ,58.8 ,20.3 ,22.0 ,20.2 
2003/6/2,4:30:00,21.1 ,58.8 ,20.3 ,21.9 ,20.1 
2003/6/2,4:45:00,21.1 ,58.8 ,20.2 ,21.9 ,20.2 
2003/6/2,5:00:00,21.0 ,58.9 ,20.2 ,21.9 ,20.1 
2003/6/2,5:15:00,21.0 ,58.9 ,20.2 ,21.9 ,20.1 
2003/6/2,5:30:00,21.0 ,58.9 ,20.1 ,21.9 ,20.1 
2003/6/2,5:45:00,21.0 ,58.9 ,20.1 ,21.9 ,20.1 
2003/6/2,6:00:00,20.9 ,58.9 ,20.1 ,21.9 ,20.1 
2003/6/2,6:15:00,20.9 ,58.8 ,20.1 ,21.9 ,20.0 
2003/6/2,6:30:00,20.9 ,58.9 ,20.0 ,21.9 ,20.0 
2003/6/2,6:45:00,20.9 ,58.9 ,20.0 ,21.9 ,20.1 
2003/6/2,7:00:00,20.9 ,58.8 ,20.0 ,21.9 ,20.0 
2003/6/2,7:15:00,20.9 ,58.8 ,20.0 ,21.9 ,20.0 
2003/6/2,7:30:00,20.9 ,58.6 ,20.0 ,21.8 ,20.1 
2003/6/2,7:45:00,21.0 ,58.3 ,20.0 ,21.8 ,20.3 
2003/6/2,8:00:00,21.0 ,58.3 ,20.0 ,21.8 ,20.4 
2003/6/2,8:15:00,21.1 ,58.2 ,20.0 ,21.8 ,20.6 
2003/6/2,8:30:00,21.1 ,58.2 ,20.0 ,21.8 ,20.8 
2003/6/2,8:45:00,21.2 ,58.1 ,20.0 ,21.8 ,20.9 
2003/6/2,9:00:00,21.2 ,58.3 ,20.0 ,21.8 ,20.9 
2003/6/2,9:15:00,21.3 ,58.3 ,20.0 ,21.7 ,21.0 
2003/6/2,9:30:00,21.4 ,58.1 ,20.1 ,21.7 ,21.1 
2003/6/2,9:45:00,21.5 ,58.0 ,20.1 ,21.7 ,21.3 
2003/6/2,10:00:00,21.6 ,57.9 ,20.1 ,21.7 ,21.3 
2003/6/2,10:15:00,21.6 ,57.8 ,20.2 ,21.7 ,21.5 
2003/6/2,10:30:00,21.7 ,57.7 ,20.2 ,21.7 ,21.5 
2003/6/2,10:45:00,21.7 ,57.5 ,20.2 ,21.7 ,21.6 
2003/6/2,11:00:00,21.8 ,57.3 ,20.2 ,21.7 ,21.6 
2003/6/2,11:15:00,21.8 ,57.3 ,20.2 ,21.7 ,21.7 
2003/6/2,11:30:00,21.9 ,57.2 ,20.3 ,21.7 ,21.8 
2003/6/2,11:45:00,21.9 ,57.1 ,20.3 ,21.6 ,21.8 
2003/6/2,12:00:00,21.9 ,56.8 ,20.3 ,21.6 ,21.9 
2003/6/2,12:15:00,21.9 ,56.7 ,20.3 ,21.6 ,22.0 
2003/6/2,12:30:00,22.0 ,56.5 ,20.3 ,21.6 ,22.0 
2003/6/2,12:45:00,22.0 ,56.3 ,20.4 ,21.6 ,22.0 
2003/6/2,13:00:00,22.0 ,56.1 ,20.4 ,21.6 ,22.1 
2003/6/2,13:15:00,22.1 ,55.7 ,20.4 ,21.6 ,22.2 
2003/6/2,13:30:00,22.1 ,55.6 ,20.4 ,21.6 ,22.2 
2003/6/2,13:45:00,22.1 ,55.3 ,20.4 ,21.6 ,22.2 
2003/6/2,14:00:00,22.1 ,55.2 ,20.4 ,21.6 ,22.3 
2003/6/2,14:15:00,22.1 ,55.1 ,20.5 ,21.6 ,22.3 
2003/6/2,14:30:00,22.2 ,55.1 ,20.5 ,21.6 ,22.3 
2003/6/2,14:45:00,22.2 ,54.9 ,20.5 ,21.6 ,22.3 
2003/6/2,15:00:00,22.2 ,54.9 ,20.5 ,21.6 ,22.4 
2003/6/2,15:15:00,22.2 ,55.1 ,20.5 ,21.6 ,22.4 
2003/6/2,15:30:00,22.2 ,55.2 ,20.6 ,21.6 ,22.3 
2003/6/2,15:45:00,22.2 ,55.0 ,20.6 ,21.6 ,22.3 
2003/6/2,16:00:00,22.2 ,55.3 ,20.6 ,21.6 ,22.4 
2003/6/2,16:15:00,22.2 ,55.3 ,20.6 ,21.6 ,22.3 
2003/6/2,16:30:00,22.2 ,55.2 ,20.7 ,21.6 ,22.3 
2003/6/2,16:45:00,22.2 ,55.3 ,20.7 ,21.6 ,22.3 
2003/6/2,17:00:00,22.2 ,55.2 ,20.7 ,21.6 ,22.2 
2003/6/2,17:15:00,22.2 ,55.3 ,20.7 ,21.6 ,22.1 
2003/6/2,17:30:00,22.2 ,55.3 ,20.7 ,21.6 ,22.1 
2003/6/2,17:45:00,22.2 ,55.3 ,20.7 ,21.6 ,22.0 
2003/6/2,18:00:00,22.2 ,55.4 ,20.7 ,21.6 ,21.9 
2003/6/2,18:15:00,22.1 ,55.5 ,20.7 ,21.6 ,21.8 
2003/6/2,18:30:00,22.1 ,55.5 ,20.7 ,21.6 ,21.7 
2003/6/2,18:45:00,22.1 ,55.5 ,20.7 ,21.6 ,21.7 
2003/6/2,19:00:00,22.0 ,55.7 ,20.7 ,21.6 ,21.5 
2003/6/2,19:15:00,22.0 ,55.7 ,20.7 ,21.6 ,21.4 
2003/6/2,19:30:00,21.9 ,55.7 ,20.7 ,21.6 ,21.3 
2003/6/2,19:45:00,21.9 ,55.7 ,20.6 ,21.6 ,21.2 
2003/6/2,20:00:00,21.8 ,55.8 ,20.6 ,21.6 ,21.1 
2003/6/2,20:15:00,21.8 ,55.8 ,20.6 ,21.6 ,20.9 
2003/6/2,20:30:00,21.7 ,55.9 ,20.6 ,21.6 ,20.9 
2003/6/2,20:45:00,21.7 ,55.9 ,20.5 ,21.6 ,20.8 
2003/6/2,21:00:00,21.6 ,56.0 ,20.5 ,21.6 ,20.7 
2003/6/2,21:15:00,21.6 ,56.1 ,20.5 ,21.6 ,20.6 
2003/6/2,21:30:00,21.5 ,56.2 ,20.4 ,21.6 ,20.6 
2003/6/2,21:45:00,21.5 ,56.3 ,20.4 ,21.6 ,20.5 
2003/6/2,22:00:00,21.4 ,56.3 ,20.4 ,21.5 ,20.4 
2003/6/2,22:15:00,21.4 ,56.3 ,20.3 ,21.5 ,20.3 
2003/6/2,22:30:00,21.3 ,56.3 ,20.3 ,21.5 ,20.2 
2003/6/2,22:45:00,21.3 ,56.4 ,20.2 ,21.5 ,20.1 
2003/6/2,23:00:00,21.2 ,56.4 ,20.2 ,21.5 ,20.0 
2003/6/2,23:15:00,21.2 ,56.4 ,20.2 ,21.5 ,20.0 
2003/6/2,23:30:00,21.1 ,56.6 ,20.1 ,21.5 ,20.0 
2003/6/2,23:45:00,21.1 ,56.7 ,20.1 ,21.5 ,20.0 
2003/6/3,0:00:00,21.1 ,56.8 ,20.1 ,21.5 ,19.9 
2003/6/3,0:15:00,21.0 ,56.8 ,20.0 ,21.5 ,19.9 
2003/6/3,0:30:00,20.9 ,56.9 ,20.0 ,21.5 ,19.9 
2003/6/3,0:45:00,20.9 ,56.9 ,20.0 ,21.5 ,19.8 
2003/6/3,1:00:00,20.8 ,56.9 ,19.9 ,21.5 ,19.8 
2003/6/3,1:15:00,20.8 ,56.9 ,19.9 ,21.5 ,19.7 
2003/6/3,1:30:00,20.7 ,56.9 ,19.9 ,21.4 ,19.6 
2003/6/3,1:45:00,20.7 ,56.8 ,19.8 ,21.4 ,19.6 
2003/6/3,2:00:00,20.6 ,56.8 ,19.8 ,21.4 ,19.6 
2003/6/3,2:15:00,20.6 ,56.8 ,19.8 ,21.4 ,19.5 
2003/6/3,2:30:00,20.6 ,56.8 ,19.7 ,21.4 ,19.4 
2003/6/3,2:45:00,20.5 ,56.7 ,19.7 ,21.4 ,19.4 
2003/6/3,3:00:00,20.4 ,56.7 ,19.7 ,21.4 ,19.3 
2003/6/3,3:15:00,20.4 ,56.7 ,19.6 ,21.3 ,19.3 
2003/6/3,3:30:00,20.3 ,56.7 ,19.6 ,21.3 ,19.2 
2003/6/3,3:45:00,20.3 ,56.6 ,19.6 ,21.3 ,19.2 
2003/6/3,4:00:00,20.2 ,56.6 ,19.5 ,21.3 ,19.1 
2003/6/3,4:15:00,20.2 ,56.5 ,19.5 ,21.3 ,19.1 
2003/6/3,4:30:00,20.1 ,56.5 ,19.4 ,21.3 ,19.1 
2003/6/3,4:45:00,20.1 ,56.4 ,19.4 ,21.2 ,19.1 
2003/6/3,5:00:00,20.1 ,56.5 ,19.4 ,21.2 ,19.1 
2003/6/3,5:15:00,20.1 ,56.4 ,19.3 ,21.2 ,19.2 
2003/6/3,5:30:00,20.1 ,56.4 ,19.3 ,21.2 ,19.1 
2003/6/3,5:45:00,20.1 ,56.4 ,19.3 ,21.2 ,19.1 
2003/6/3,6:00:00,20.2 ,56.0 ,19.3 ,21.1 ,19.2 
2003/6/3,6:15:00,20.3 ,55.8 ,19.3 ,21.1 ,19.3 
2003/6/3,6:30:00,20.3 ,55.8 ,19.3 ,21.1 ,19.4 
2003/6/3,6:45:00,20.4 ,56.0 ,19.3 ,21.1 ,19.5 
2003/6/3,7:00:00,20.4 ,56.3 ,19.3 ,21.1 ,19.7 
2003/6/3,7:15:00,20.5 ,56.3 ,19.3 ,21.0 ,19.8 
2003/6/3,7:30:00,20.6 ,56.4 ,19.3 ,21.0 ,19.9 
2003/6/3,7:45:00,20.7 ,56.4 ,19.3 ,21.0 ,20.1 
2003/6/3,8:00:00,20.8 ,56.4 ,19.4 ,21.0 ,20.3 
2003/6/3,8:15:00,20.9 ,56.5 ,19.4 ,21.0 ,20.4 
2003/6/3,8:30:00,21.0 ,56.5 ,19.4 ,21.0 ,20.6 
2003/6/3,8:45:00,21.0 ,56.5 ,19.5 ,21.0 ,20.7 
2003/6/3,9:00:00,21.1 ,56.5 ,19.5 ,21.0 ,20.8 
2003/6/3,9:15:00,21.2 ,56.5 ,19.5 ,21.0 ,20.9 
2003/6/3,9:30:00,21.3 ,56.5 ,19.6 ,20.9 ,21.0 
2003/6/3,9:45:00,21.4 ,56.3 ,19.6 ,20.9 ,21.2 
2003/6/3,10:00:00,21.4 ,56.2 ,19.6 ,20.9 ,21.3 
2003/6/3,10:15:00,21.5 ,56.0 ,19.7 ,20.9 ,21.4 
2003/6/3,10:30:00,21.6 ,55.8 ,19.7 ,20.9 ,21.5 
2003/6/3,10:45:00,21.6 ,55.7 ,19.7 ,20.9 ,21.6 
2003/6/3,11:00:00,21.7 ,55.6 ,19.8 ,20.9 ,21.7 
2003/6/3,11:15:00,21.7 ,55.3 ,19.8 ,20.9 ,21.8 
2003/6/3,11:30:00,21.8 ,54.9 ,19.8 ,20.9 ,21.9 
2003/6/3,11:45:00,21.8 ,54.7 ,19.8 ,20.9 ,21.9 
2003/6/3,12:00:00,21.8 ,54.5 ,19.9 ,20.9 ,22.0 
2003/6/3,12:15:00,21.9 ,54.1 ,19.9 ,20.9 ,22.1 
2003/6/3,12:30:00,21.9 ,53.7 ,19.9 ,20.9 ,22.1 
2003/6/3,12:45:00,21.9 ,53.5 ,19.9 ,20.9 ,22.1 
2003/6/3,13:00:00,22.0 ,53.3 ,20.0 ,20.9 ,22.2 
2003/6/3,13:15:00,22.0 ,52.9 ,20.0 ,20.9 ,22.3 
2003/6/3,13:30:00,22.0 ,52.8 ,20.0 ,20.9 ,22.3 
2003/6/3,13:45:00,22.0 ,52.6 ,20.0 ,20.9 ,22.3 
2003/6/3,14:00:00,22.1 ,52.1 ,20.1 ,20.9 ,22.4 
2003/6/3,14:15:00,22.1 ,52.1 ,20.1 ,20.9 ,22.4 
2003/6/3,14:30:00,22.1 ,52.2 ,20.1 ,20.9 ,22.4 
2003/6/3,14:45:00,22.1 ,52.1 ,20.1 ,21.0 ,22.4 
2003/6/3,15:00:00,22.1 ,51.8 ,20.2 ,21.0 ,22.4 
2003/6/3,15:15:00,22.1 ,51.9 ,20.2 ,21.0 ,22.4 
2003/6/3,15:30:00,22.1 ,52.2 ,20.2 ,21.0 ,22.4 
2003/6/3,15:45:00,22.1 ,51.9 ,20.2 ,21.0 ,22.4 
2003/6/3,16:00:00,22.1 ,52.1 ,20.3 ,21.0 ,22.4 
2003/6/3,16:15:00,22.1 ,52.1 ,20.3 ,21.0 ,22.4 
2003/6/3,16:30:00,22.1 ,51.7 ,20.3 ,21.0 ,22.4 
2003/6/3,16:45:00,22.1 ,51.5 ,20.3 ,21.0 ,22.4 
2003/6/3,17:00:00,22.1 ,51.2 ,20.4 ,21.0 ,22.3 
2003/6/3,17:15:00,22.1 ,51.0 ,20.4 ,21.0 ,22.3 
2003/6/3,17:30:00,22.1 ,50.5 ,20.4 ,21.0 ,22.3 
2003/6/3,17:45:00,22.1 ,50.5 ,20.4 ,21.0 ,22.2 
2003/6/3,18:00:00,22.1 ,50.4 ,20.4 ,21.0 ,22.2 
2003/6/3,18:15:00,22.1 ,50.4 ,20.5 ,21.0 ,22.1 
2003/6/3,18:30:00,22.1 ,50.3 ,20.5 ,21.1 ,22.0 
2003/6/3,18:45:00,22.1 ,50.7 ,20.5 ,21.1 ,21.9 
2003/6/3,19:00:00,22.0 ,51.1 ,20.5 ,21.1 ,21.8 
2003/6/3,19:15:00,22.0 ,51.1 ,20.4 ,21.1 ,21.6 
2003/6/3,19:30:00,22.0 ,51.1 ,20.4 ,21.1 ,21.5 
2003/6/3,19:45:00,21.9 ,51.0 ,20.4 ,21.1 ,21.3 
2003/6/3,20:00:00,21.9 ,51.0 ,20.4 ,21.1 ,21.2 
2003/6/3,20:15:00,21.8 ,51.2 ,20.4 ,21.1 ,21.1 
2003/6/3,20:30:00,21.7 ,51.1 ,20.3 ,21.1 ,20.9 
2003/6/3,20:45:00,21.7 ,50.8 ,20.3 ,21.1 ,20.8 
2003/6/3,21:00:00,21.6 ,51.1 ,20.3 ,21.1 ,20.7 
2003/6/3,21:15:00,21.6 ,51.2 ,20.2 ,21.1 ,20.7 
2003/6/3,21:30:00,21.5 ,51.1 ,20.2 ,21.1 ,20.6 
2003/6/3,21:45:00,21.5 ,51.0 ,20.2 ,21.1 ,20.4 
2003/6/3,22:00:00,21.4 ,51.0 ,20.1 ,21.1 ,20.4 
2003/6/3,22:15:00,21.3 ,50.9 ,20.1 ,21.1 ,20.3 
2003/6/3,22:30:00,21.3 ,50.9 ,20.1 ,21.1 ,20.2 
2003/6/3,22:45:00,21.2 ,51.0 ,20.0 ,21.1 ,20.1 
2003/6/3,23:00:00,21.2 ,51.0 ,20.0 ,21.1 ,20.1 
2003/6/3,23:15:00,21.1 ,51.0 ,19.9 ,21.1 ,20.0 
2003/6/3,23:30:00,21.0 ,51.0 ,19.9 ,21.0 ,19.9 
2003/6/3,23:45:00,21.0 ,51.0 ,19.9 ,21.0 ,19.8 
2003/6/4,0:00:00,20.9 ,51.1 ,19.8 ,21.0 ,19.8 
2003/6/4,0:15:00,20.9 ,51.1 ,19.8 ,21.0 ,19.8 
2003/6/4,0:30:00,20.8 ,51.1 ,19.8 ,21.0 ,19.6 
2003/6/4,0:45:00,20.8 ,51.1 ,19.7 ,21.0 ,19.7 
2003/6/4,1:00:00,20.7 ,51.1 ,19.7 ,21.0 ,19.6 
2003/6/4,1:15:00,20.7 ,51.2 ,19.7 ,21.0 ,19.5 
2003/6/4,1:30:00,20.6 ,51.2 ,19.6 ,21.0 ,19.5 
2003/6/4,1:45:00,20.6 ,51.4 ,19.6 ,20.9 ,19.4 
2003/6/4,2:00:00,20.5 ,51.4 ,19.6 ,20.9 ,19.4 
2003/6/4,2:15:00,20.4 ,51.5 ,19.5 ,20.9 ,19.3 
2003/6/4,2:30:00,20.4 ,51.5 ,19.5 ,20.9 ,19.2 
2003/6/4,2:45:00,20.3 ,51.6 ,19.5 ,20.9 ,19.2 
2003/6/4,3:00:00,20.3 ,51.7 ,19.4 ,20.9 ,19.1 
2003/6/4,3:15:00,20.2 ,51.8 ,19.4 ,20.9 ,19.1 
2003/6/4,3:30:00,20.2 ,51.7 ,19.4 ,20.9 ,19.1 
2003/6/4,3:45:00,20.1 ,51.8 ,19.3 ,20.8 ,19.1 
2003/6/4,4:00:00,20.1 ,51.9 ,19.3 ,20.8 ,19.1 
2003/6/4,4:15:00,20.0 ,51.9 ,19.3 ,20.8 ,19.0 
2003/6/4,4:30:00,20.0 ,52.0 ,19.2 ,20.8 ,19.0 
2003/6/4,4:45:00,19.9 ,52.0 ,19.2 ,20.8 ,18.9 
2003/6/4,5:00:00,19.9 ,52.0 ,19.2 ,20.8 ,18.9 
2003/6/4,5:15:00,19.9 ,52.0 ,19.2 ,20.7 ,19.0 
2003/6/4,5:30:00,19.9 ,52.1 ,19.1 ,20.7 ,19.0 
2003/6/4,5:45:00,19.9 ,52.2 ,19.1 ,20.7 ,19.0 
2003/6/4,6:00:00,19.9 ,52.3 ,19.1 ,20.7 ,19.1 
2003/6/4,6:15:00,19.9 ,52.4 ,19.1 ,20.7 ,19.1 
2003/6/4,6:30:00,20.0 ,52.2 ,19.1 ,20.7 ,19.2 
2003/6/4,6:45:00,20.1 ,52.1 ,19.1 ,20.7 ,19.3 
2003/6/4,7:00:00,20.2 ,52.3 ,19.1 ,20.6 ,19.6 
2003/6/4,7:15:00,20.2 ,52.4 ,19.1 ,20.6 ,19.8 
2003/6/4,7:30:00,20.3 ,52.8 ,19.2 ,20.6 ,19.9 
2003/6/4,7:45:00,20.3 ,53.0 ,19.2 ,20.6 ,19.9 
2003/6/4,8:00:00,20.4 ,53.2 ,19.2 ,20.6 ,20.1 
2003/6/4,8:15:00,20.5 ,53.1 ,19.2 ,20.6 ,20.2 
2003/6/4,8:30:00,20.6 ,53.3 ,19.3 ,20.6 ,20.4 
2003/6/4,8:45:00,20.6 ,53.8 ,19.3 ,20.6 ,20.4 
2003/6/4,9:00:00,20.8 ,53.9 ,19.3 ,20.6 ,20.6 
2003/6/4,9:15:00,20.9 ,53.8 ,19.4 ,20.5 ,20.7 
2003/6/4,9:30:00,21.0 ,54.0 ,19.4 ,20.5 ,20.9 
2003/6/4,9:45:00,21.1 ,54.2 ,19.4 ,20.5 ,21.0 
2003/6/4,10:00:00,21.2 ,54.1 ,19.5 ,20.5 ,21.2 
2003/6/4,10:15:00,21.3 ,54.3 ,19.6 ,20.5 ,21.3 
2003/6/4,10:30:00,21.3 ,54.5 ,19.6 ,20.5 ,21.4 
2003/6/4,10:45:00,21.4 ,54.6 ,19.6 ,20.5 ,21.5 
2003/6/4,11:00:00,21.5 ,54.5 ,19.7 ,20.5 ,21.6 
2003/6/4,11:15:00,21.5 ,54.5 ,19.8 ,20.5 ,21.6 
2003/6/4,11:30:00,21.6 ,54.7 ,19.8 ,20.5 ,21.7 
2003/6/4,11:45:00,21.7 ,54.7 ,19.9 ,20.5 ,21.8 
2003/6/4,12:00:00,21.7 ,54.9 ,19.9 ,20.5 ,21.8 
2003/6/4,12:15:00,21.8 ,54.9 ,20.0 ,20.5 ,21.9 
2003/6/4,12:30:00,21.9 ,55.0 ,20.0 ,20.5 ,22.0 
2003/6/4,12:45:00,21.9 ,54.9 ,20.1 ,20.5 ,22.0 
2003/6/4,13:00:00,22.0 ,54.9 ,20.1 ,20.5 ,22.1 
2003/6/4,13:15:00,22.0 ,55.0 ,20.2 ,20.6 ,22.1 
2003/6/4,13:30:00,22.1 ,55.0 ,20.2 ,20.6 ,22.2 
2003/6/4,13:45:00,22.1 ,55.0 ,20.3 ,20.6 ,22.2 
2003/6/4,14:00:00,22.2 ,55.1 ,20.4 ,20.6 ,22.3 
2003/6/4,14:15:00,22.2 ,55.2 ,20.4 ,20.6 ,22.3 
2003/6/4,14:30:00,22.3 ,55.1 ,20.5 ,20.6 ,22.4 
2003/6/4,14:45:00,22.3 ,55.2 ,20.5 ,20.6 ,22.4 
2003/6/4,15:00:00,22.3 ,55.2 ,20.6 ,20.6 ,22.4 
2003/6/4,15:15:00,22.4 ,55.4 ,20.6 ,20.6 ,22.5 
2003/6/4,15:30:00,22.4 ,55.3 ,20.6 ,20.6 ,22.5 
2003/6/4,15:45:00,22.4 ,55.4 ,20.7 ,20.6 ,22.5 
2003/6/4,16:00:00,22.4 ,55.4 ,20.7 ,20.7 ,22.6 
2003/6/4,16:15:00,22.5 ,55.5 ,20.8 ,20.7 ,22.6 
2003/6/4,16:30:00,22.5 ,55.5 ,20.8 ,20.7 ,22.6 
2003/6/4,16:45:00,22.5 ,55.6 ,20.8 ,20.7 ,22.6 
2003/6/4,17:00:00,22.5 ,55.8 ,20.9 ,20.7 ,22.6 
2003/6/4,17:15:00,22.5 ,55.7 ,20.9 ,20.7 ,22.6 
2003/6/4,17:30:00,22.5 ,55.8 ,20.9 ,20.7 ,22.6 
2003/6/4,17:45:00,22.5 ,56.0 ,20.9 ,20.8 ,22.5 
2003/6/4,18:00:00,22.5 ,56.2 ,20.9 ,20.8 ,22.6 
2003/6/4,18:15:00,22.5 ,56.3 ,21.0 ,20.8 ,22.5 
2003/6/4,18:30:00,22.5 ,56.5 ,21.0 ,20.8 ,22.5 
2003/6/4,18:45:00,22.5 ,56.8 ,21.0 ,20.8 ,22.4 
2003/6/4,19:00:00,22.5 ,56.7 ,21.0 ,20.8 ,22.4 
2003/6/4,19:15:00,22.4 ,56.7 ,21.0 ,20.8 ,22.4 
2003/6/4,19:30:00,22.4 ,56.6 ,21.0 ,20.8 ,22.3 
2003/6/4,19:45:00,22.4 ,56.5 ,21.0 ,20.9 ,22.2 
2003/6/4,20:00:00,22.4 ,56.3 ,21.0 ,20.9 ,22.2 
2003/6/4,20:15:00,22.4 ,56.1 ,21.0 ,20.9 ,22.1 
2003/6/4,20:30:00,22.3 ,56.0 ,21.0 ,20.9 ,22.0 
2003/6/4,20:45:00,22.3 ,55.8 ,21.0 ,20.9 ,21.9 
2003/6/4,21:00:00,22.3 ,55.6 ,21.0 ,20.9 ,21.9 
2003/6/4,21:15:00,22.2 ,55.6 ,21.0 ,20.9 ,21.8 
2003/6/4,21:30:00,22.2 ,55.5 ,20.9 ,20.9 ,21.7 
2003/6/4,21:45:00,22.2 ,55.2 ,20.9 ,20.9 ,21.7 
2003/6/4,22:00:00,22.1 ,55.2 ,20.9 ,20.9 ,21.6 
2003/6/4,22:15:00,22.1 ,55.2 ,20.9 ,21.0 ,21.5 
2003/6/4,22:30:00,22.1 ,55.1 ,20.9 ,21.0 ,21.5 
2003/6/4,22:45:00,22.0 ,55.2 ,20.8 ,21.0 ,21.5 
2003/6/4,23:00:00,22.0 ,55.6 ,20.8 ,21.0 ,21.3 
2003/6/4,23:15:00,22.0 ,55.6 ,20.8 ,21.0 ,21.2 
2003/6/4,23:30:00,21.9 ,55.5 ,20.8 ,21.0 ,21.2 
2003/6/4,23:45:00,21.9 ,55.7 ,20.7 ,21.0 ,21.2 
2003/6/5,0:00:00,21.9 ,55.7 ,20.7 ,21.0 ,21.1 
2003/6/5,0:15:00,21.8 ,55.8 ,20.7 ,21.0 ,21.0 
2003/6/5,0:30:00,21.8 ,55.9 ,20.7 ,21.0 ,21.0 
2003/6/5,0:45:00,21.7 ,56.0 ,20.6 ,21.0 ,20.9 
2003/6/5,1:00:00,21.7 ,55.9 ,20.6 ,21.0 ,20.8 
2003/6/5,1:15:00,21.7 ,56.0 ,20.6 ,21.0 ,20.8 
2003/6/5,1:30:00,21.6 ,56.1 ,20.6 ,21.0 ,20.9 
2003/6/5,1:45:00,21.6 ,56.2 ,20.5 ,21.0 ,20.7 
2003/6/5,2:00:00,21.5 ,56.2 ,20.5 ,21.0 ,20.6 
2003/6/5,2:15:00,21.5 ,56.2 ,20.5 ,21.0 ,20.6 
2003/6/5,2:30:00,21.5 ,56.2 ,20.5 ,21.0 ,20.6 
2003/6/5,2:45:00,21.4 ,56.2 ,20.4 ,21.0 ,20.5 
2003/6/5,3:00:00,21.4 ,56.2 ,20.4 ,21.0 ,20.4 
2003/6/5,3:15:00,21.3 ,56.1 ,20.4 ,21.0 ,20.4 
2003/6/5,3:30:00,21.3 ,56.1 ,20.3 ,21.0 ,20.3 
2003/6/5,3:45:00,21.2 ,56.1 ,20.3 ,21.0 ,20.2 
2003/6/5,4:00:00,21.2 ,56.1 ,20.2 ,21.0 ,20.2 
2003/6/5,4:15:00,21.1 ,56.1 ,20.2 ,21.0 ,20.2 
2003/6/5,4:30:00,21.1 ,56.2 ,20.2 ,21.0 ,20.1 
2003/6/5,4:45:00,21.1 ,56.3 ,20.2 ,21.0 ,20.1 
2003/6/5,5:00:00,21.1 ,56.4 ,20.2 ,21.0 ,20.2 
2003/6/5,5:15:00,21.1 ,56.4 ,20.1 ,21.0 ,20.3 
2003/6/5,5:30:00,21.1 ,56.4 ,20.1 ,21.0 ,20.4 
2003/6/5,5:45:00,21.1 ,56.4 ,20.1 ,21.0 ,20.4 
2003/6/5,6:00:00,21.1 ,56.3 ,20.1 ,20.9 ,20.4 
2003/6/5,6:15:00,21.2 ,56.1 ,20.1 ,20.9 ,20.4 
2003/6/5,6:30:00,21.3 ,56.0 ,20.1 ,20.9 ,20.5 
2003/6/5,6:45:00,21.4 ,56.1 ,20.1 ,20.9 ,20.6 
2003/6/5,7:00:00,21.4 ,56.1 ,20.1 ,20.9 ,20.8 
2003/6/5,7:15:00,21.5 ,56.1 ,20.1 ,20.9 ,21.0 
2003/6/5,7:30:00,21.7 ,56.1 ,20.1 ,20.9 ,21.2 
2003/6/5,7:45:00,21.8 ,56.1 ,20.2 ,20.9 ,21.3 
2003/6/5,8:00:00,21.9 ,55.9 ,20.2 ,20.9 ,21.5 
2003/6/5,8:15:00,21.9 ,55.8 ,20.2 ,20.9 ,21.7 
2003/6/5,8:30:00,22.0 ,55.8 ,20.3 ,20.9 ,21.8 
2003/6/5,8:45:00,22.1 ,55.6 ,20.3 ,20.9 ,21.9 
2003/6/5,9:00:00,22.2 ,55.4 ,20.3 ,20.9 ,22.1 
2003/6/5,9:15:00,22.2 ,55.3 ,20.4 ,20.9 ,22.2 
2003/6/5,9:30:00,22.3 ,55.2 ,20.4 ,20.9 ,22.3 
2003/6/5,9:45:00,22.4 ,55.2 ,20.5 ,20.9 ,22.4 
2003/6/5,10:00:00,22.5 ,55.1 ,20.5 ,20.9 ,22.5 
2003/6/5,10:15:00,22.6 ,55.2 ,20.6 ,20.9 ,22.6 
2003/6/5,10:30:00,22.6 ,55.1 ,20.6 ,21.0 ,22.6 
2003/6/5,10:45:00,22.7 ,55.1 ,20.7 ,21.0 ,22.8 
2003/6/5,11:00:00,22.8 ,55.1 ,20.7 ,21.0 ,22.9 
2003/6/5,11:15:00,22.9 ,55.1 ,20.8 ,21.0 ,22.9 
2003/6/5,11:30:00,22.9 ,55.1 ,20.8 ,21.0 ,23.0 
2003/6/5,11:45:00,23.0 ,54.9 ,20.9 ,21.0 ,23.1 
2003/6/5,12:00:00,23.0 ,54.8 ,20.9 ,21.0 ,23.2 
2003/6/5,12:15:00,23.1 ,54.9 ,21.0 ,21.0 ,23.2 
2003/6/5,12:30:00,23.2 ,54.9 ,21.0 ,21.0 ,23.3 
2003/6/5,12:45:00,23.2 ,54.8 ,21.1 ,21.0 ,23.4 
2003/6/5,13:00:00,23.2 ,54.9 ,21.1 ,21.1 ,23.4 
2003/6/5,13:15:00,23.3 ,54.9 ,21.2 ,21.1 ,23.4 
2003/6/5,13:30:00,23.3 ,54.9 ,21.2 ,21.1 ,23.5 
2003/6/5,13:45:00,23.4 ,54.9 ,21.3 ,21.1 ,23.5 
2003/6/5,14:00:00,23.4 ,54.8 ,21.3 ,21.1 ,23.5 
2003/6/5,14:15:00,23.4 ,54.8 ,21.4 ,21.1 ,23.6 
2003/6/5,14:30:00,23.5 ,54.7 ,21.4 ,21.2 ,23.6 
2003/6/5,14:45:00,23.5 ,54.7 ,21.5 ,21.2 ,23.6 
2003/6/5,15:00:00,23.5 ,54.7 ,21.5 ,21.2 ,23.6 
2003/6/5,15:15:00,23.5 ,54.7 ,21.5 ,21.2 ,23.7 
2003/6/5,15:30:00,23.5 ,54.7 ,21.6 ,21.3 ,23.7 
2003/6/5,15:45:00,23.5 ,54.8 ,21.6 ,21.3 ,23.6 
2003/6/5,16:00:00,23.5 ,54.8 ,21.6 ,21.3 ,23.6 
2003/6/5,16:15:00,23.6 ,54.7 ,21.7 ,21.3 ,23.7 
2003/6/5,16:30:00,23.6 ,54.7 ,21.7 ,21.3 ,23.7 
2003/6/5,16:45:00,23.6 ,54.8 ,21.7 ,21.4 ,23.6 
2003/6/5,17:00:00,23.5 ,54.8 ,21.8 ,21.4 ,23.6 
2003/6/5,17:15:00,23.6 ,54.9 ,21.8 ,21.4 ,23.6 
2003/6/5,17:30:00,23.5 ,54.9 ,21.8 ,21.4 ,23.5 
2003/6/5,17:45:00,23.5 ,54.9 ,21.8 ,21.4 ,23.4 
2003/6/5,18:00:00,23.5 ,55.0 ,21.8 ,21.5 ,23.4 
2003/6/5,18:15:00,23.5 ,55.1 ,21.9 ,21.5 ,23.3 
2003/6/5,18:30:00,23.4 ,55.1 ,21.9 ,21.5 ,23.2 
2003/6/5,18:45:00,23.4 ,55.1 ,21.9 ,21.5 ,23.1 
2003/6/5,19:00:00,23.4 ,55.2 ,21.8 ,21.5 ,23.0 
2003/6/5,19:15:00,23.4 ,55.2 ,21.8 ,21.6 ,23.0 
2003/6/5,19:30:00,23.3 ,55.2 ,21.8 ,21.6 ,22.8 
2003/6/5,19:45:00,23.3 ,55.2 ,21.8 ,21.6 ,22.7 
2003/6/5,20:00:00,23.2 ,55.3 ,21.8 ,21.6 ,22.6 
2003/6/5,20:15:00,23.2 ,55.3 ,21.8 ,21.6 ,22.5 
2003/6/5,20:30:00,23.2 ,55.2 ,21.7 ,21.6 ,22.4 
2003/6/5,20:45:00,23.1 ,55.2 ,21.7 ,21.6 ,22.3 
2003/6/5,21:00:00,23.1 ,55.2 ,21.7 ,21.7 ,22.3 
2003/6/5,21:15:00,23.0 ,55.2 ,21.7 ,21.7 ,22.2 
2003/6/5,21:30:00,23.0 ,55.1 ,21.6 ,21.7 ,22.1 
2003/6/5,21:45:00,22.9 ,55.1 ,21.6 ,21.7 ,22.0 
2003/6/5,22:00:00,22.9 ,55.2 ,21.6 ,21.7 ,21.9 
2003/6/5,22:15:00,22.8 ,55.2 ,21.5 ,21.7 ,21.8 
2003/6/5,22:30:00,22.7 ,55.1 ,21.5 ,21.7 ,21.7 
2003/6/5,22:45:00,22.7 ,55.1 ,21.5 ,21.7 ,21.7 
2003/6/5,23:00:00,22.7 ,55.2 ,21.4 ,21.7 ,21.7 
2003/6/5,23:15:00,22.6 ,55.2 ,21.4 ,21.7 ,21.5 
2003/6/5,23:30:00,22.5 ,55.2 ,21.4 ,21.7 ,21.4 
2003/6/5,23:45:00,22.5 ,55.2 ,21.3 ,21.7 ,21.4 
2003/6/6,0:00:00,22.4 ,55.3 ,21.3 ,21.7 ,21.3 
2003/6/6,0:15:00,22.4 ,55.3 ,21.3 ,21.7 ,21.3 
2003/6/6,0:30:00,22.3 ,55.3 ,21.2 ,21.7 ,21.3 
2003/6/6,0:45:00,22.3 ,55.3 ,21.2 ,21.7 ,21.3 
2003/6/6,1:00:00,22.2 ,55.4 ,21.2 ,21.7 ,21.2 
2003/6/6,1:15:00,22.2 ,55.4 ,21.1 ,21.7 ,21.1 
2003/6/6,1:30:00,22.2 ,55.4 ,21.1 ,21.7 ,21.2 
2003/6/6,1:45:00,22.1 ,55.5 ,21.1 ,21.7 ,21.1 
2003/6/6,2:00:00,22.1 ,55.5 ,21.0 ,21.7 ,21.0 
2003/6/6,2:15:00,22.0 ,55.5 ,21.0 ,21.7 ,20.9 
2003/6/6,2:30:00,22.0 ,55.5 ,20.9 ,21.7 ,20.9 
2003/6/6,2:45:00,21.9 ,55.6 ,20.9 ,21.7 ,20.8 
2003/6/6,3:00:00,21.9 ,55.5 ,20.9 ,21.7 ,20.7 